STARLINK-32375

Last updated on Tue Oct 08 2024 00:02:04 GMT+0000 (Coordinated Universal Time)

1 61070U 24164W 24281.58334491 -.00018773 00000+0 -33042-3 0 9997 2 61070 53.1590 347.1192 0000864 130.1467 107.1009 15.49297815 5099
UTC large
Height (km)
Speed (km/s)
/
Latitude / Longitude
Inclination (degrees)
Orbital Period (minutes)
Azimuth
Elevation
Range (km)
Doppler Factor

Next 0 passes for location: London (51.5072 / 0.1276)

Sorry there are no passes over London.